Location: Lynch Observatory
(39.9540°N, 75.1861°W)
Time: 02:32:15
(UTC-04:00)

NANOSAT C BR1 - Pass Details

Date: 20 April 2024
Orbit: 556 x 561 km, 98.1° (Epoch: 19 May)

Event Time Altitude Azimuth Distance (km) Brightness Sun altitude
Rises 04:41:21 0° 15° (NNE) 2,768 ? -17.2°
Reaches altitude 10° 04:43:30 10° 18° (NNE) 1,868 ? -16.8°
Maximum altitude 04:47:32 70° 102° (ESE) 607 ? -16.2°
Enters shadow 04:51:07 13° 185° (S) 1,684 ? -15.6°
